Weather History for EGPF - August, 2013

Change the Weather History Date:

Friday, August 30, 2013

  Actual Average Record
Temperature  
Mean Temperature 58 °F -  
Max Temperature 66 °F 60 °F - ()
Min Temperature 48 °F 46 °F - ()
Degree Days  
Heating Degree Days 7    
Growing Degree Days 8 (Base 50)    
Moisture  
Dew Point 53 °F    
Average Humidity 84    
Maximum Humidity 100    
Minimum Humidity 62    
Precipitation  
Precipitation 0.00 in - - ()
Sea Level Pressure  
Sea Level Pressure 29.95 in    
Wind  
Wind Speed 9 mph ()    
Max Wind Speed 24 mph    
Max Gust Speed 37 mph    
Visibility 5.9 miles    
Events Rain    
T = Trace of Precipitation, MM = Missing Value Source: Averaged Metar Reports

Daily Weather History Graph

Daily Weather History Graph

Search for Another Location

Airport or City:

Trip Planner

Search our weather history database for the weather conditions in past years. The results will help you decide how hot, cold, wet, or windy it might be!

Date:

Astronomy

Aug. 30, 2013 Rise Set
Actual Time 6:18 AM BST 8:16 PM BST
Civil Twilight 5:38 AM BST 8:56 PM BST
Nautical Twilight 4:48 AM BST 9:45 PM BST
Astronomical Twilight 3:49 AM BST 10:44 PM BST
Moon 12:11 AM BST (8/30) 4:55 PM BST (8/30)
Length of Visible Light 15h 17m
Length of Day
13h 58m
Waning Crescent, 31% of the Moon is Illuminated
Aug 30
Waning Crescent
Sep 5
New
Sep 12
First Quarter
Sep 19
Full
Sep 27
Last Quarter

Hourly Weather History & Observations

Time (BST) Temp. Dew Point Humidity Pressure Visibility Wind Dir Wind Speed Gust Speed Precip Events Conditions
12:20 AM 55.4 °F 51.8 °F 88% 30.04 in 6.2 mi West 8.1 mph - N/A   Partly Cloudy
12:50 AM 55.4 °F 53.6 °F 94% 30.01 in 6.2 mi West 8.1 mph - N/A   Mostly Cloudy
1:20 AM 57.2 °F 53.6 °F 88% 30.01 in 6.2 mi West 5.8 mph - N/A   Mostly Cloudy
1:50 AM 57.2 °F 53.6 °F 88% 30.01 in 6.2 mi West 6.9 mph - N/A   Mostly Cloudy
2:20 AM 57.2 °F 53.6 °F 88% 30.01 in 6.2 mi West 4.6 mph - N/A   Mostly Cloudy
2:50 AM 55.4 °F 53.6 °F 94% 30.01 in 6.2 mi WSW 2.3 mph - N/A   Mostly Cloudy
3:20 AM 55.4 °F 53.6 °F 94% 30.01 in 6.2 mi West 3.5 mph - N/A   Mostly Cloudy
3:50 AM 55.4 °F 53.6 °F 94% 30.01 in 6.2 mi SW 2.3 mph - N/A   Mostly Cloudy
4:20 AM 55.4 °F 53.6 °F 94% 29.98 in 6.2 mi SSW 3.5 mph - N/A   Mostly Cloudy
4:50 AM 55.4 °F 51.8 °F 88% 29.98 in 6.2 mi SW 4.6 mph - N/A   Mostly Cloudy
5:20 AM 53.6 °F 53.6 °F 100% 29.98 in 6.2 mi SW 3.5 mph - N/A   Mostly Cloudy
5:50 AM 55.4 °F 53.6 °F 94% 29.95 in 6.2 mi SW 5.8 mph - N/A   Mostly Cloudy
6:20 AM 57.2 °F 53.6 °F 88% 29.95 in 6.2 mi WSW 8.1 mph - N/A   Overcast
6:50 AM 57.2 °F 53.6 °F 88% 29.95 in 6.2 mi Calm Calm - N/A   Overcast
7:20 AM 59.0 °F 53.6 °F 82% 29.95 in 6.2 mi Variable 3.5 mph - N/A   Overcast
7:50 AM 59.0 °F 55.4 °F 88% 29.95 in 6.2 mi SSW 8.1 mph - N/A   Mostly Cloudy
8:20 AM 59.0 °F 55.4 °F 88% 29.92 in 6.2 mi SSW 10.4 mph - N/A   Mostly Cloudy
8:50 AM 59.0 °F 55.4 °F 88% 29.92 in 6.2 mi SW 9.2 mph - N/A   Mostly Cloudy
9:20 AM 59.0 °F 55.4 °F 88% 29.92 in 6.2 mi SSW 12.7 mph - N/A   Mostly Cloudy
9:50 AM 60.8 °F 55.4 °F 82% 29.92 in 6.2 mi SSW 13.8 mph - N/A   Mostly Cloudy
10:20 AM 60.8 °F 55.4 °F 82% 29.92 in 6.2 mi SW 18.4 mph - N/A   Scattered Clouds
10:50 AM 60.8 °F 57.2 °F 88% 29.89 in 6.2 mi SSW 20.7 mph - N/A   Mostly Cloudy
11:20 AM 62.6 °F 57.2 °F 82% 29.89 in 6.2 mi SSW 16.1 mph - N/A   Mostly Cloudy
11:50 AM 62.6 °F 57.2 °F 82% 29.89 in 6.2 mi SW 19.6 mph - N/A   Mostly Cloudy
12:20 PM 60.8 °F 59.0 °F 94% 29.89 in 2.5 mi SW 16.1 mph - N/A   Light Drizzle
12:50 PM 60.8 °F 59.0 °F 94% 29.89 in 5.0 mi SW 18.4 mph - N/A   Light Drizzle
1:20 PM 62.6 °F 59.0 °F 88% 29.86 in 6.2 mi SW 15.0 mph - N/A   Mostly Cloudy
1:50 PM 64.4 °F 59.0 °F 83% 29.86 in 6.2 mi SW 15.0 mph - N/A   Mostly Cloudy
2:20 PM 66.2 °F 59.0 °F 78% 29.86 in 6.2 mi SW 20.7 mph - N/A   Overcast
2:50 PM 62.6 °F 60.8 °F 94% 29.86 in 2.5 mi SW 18.4 mph - N/A Rain Light Rain Showers
3:20 PM 62.6 °F 60.8 °F 94% 29.86 in 3.7 mi SW 19.6 mph - N/A Rain Light Rain
3:50 PM 62.6 °F 59.0 °F 88% 29.86 in 3.1 mi WSW 16.1 mph - N/A Rain Light Rain
4:20 PM 62.6 °F 59.0 °F 88% 29.86 in 5.6 mi WSW 16.1 mph - N/A   Mostly Cloudy
4:50 PM 60.8 °F 57.2 °F 88% 29.89 in 6.2 mi West 19.6 mph 32.2 mph N/A   Mostly Cloudy
5:20 PM 60.8 °F 55.4 °F 82% 29.89 in 6.2 mi West 16.1 mph - N/A   Mostly Cloudy
5:50 PM 59.0 °F 55.4 °F 88% 29.89 in 6.2 mi WSW 16.1 mph - N/A Rain Light Rain
6:20 PM 59.0 °F 55.4 °F 88% 29.89 in 6.2 mi WSW 15.0 mph - N/A   Light Drizzle
6:50 PM 59.0 °F 53.6 °F 82% 29.92 in 6.2 mi West 19.6 mph - N/A   Scattered Clouds
7:20 PM 57.2 °F 50.0 °F 77% 29.92 in 6.2 mi West 24.2 mph 36.8 mph N/A   Scattered Clouds
7:50 PM 55.4 °F 48.2 °F 77% 29.98 in 6.2 mi West 23.0 mph - N/A   Scattered Clouds
8:20 PM 55.4 °F 44.6 °F 67% 29.98 in 6.2 mi West 17.3 mph - N/A   Scattered Clouds
8:50 PM 53.6 °F 42.8 °F 67% 30.01 in 6.2 mi West 9.2 mph - N/A   Partly Cloudy
9:20 PM 53.6 °F 41.0 °F 62% 30.04 in 6.2 mi WSW 5.8 mph - N/A   Partly Cloudy
9:50 PM 53.6 °F 41.0 °F 62% 30.06 in 6.2 mi West 10.4 mph - N/A   Partly Cloudy
10:20 PM 51.8 °F 41.0 °F 67% 30.06 in 6.2 mi WSW 12.7 mph - N/A   Partly Cloudy
10:50 PM 51.8 °F 41.0 °F 67% 30.06 in 6.2 mi West 12.7 mph - N/A   Partly Cloudy
11:20 PM 50.0 °F 41.0 °F 71% 30.06 in 6.2 mi WSW 9.2 mph - N/A   Partly Cloudy
11:50 PM 48.2 °F 41.0 °F 76% 30.09 in 6.2 mi Variable 6.9 mph - N/A   Partly Cloudy